This demonstration page uses our WeatherBlox Daily Observations layout. Learn more.

Left ArrowRight Arrow

34.02893, -84.19858

Hourly Observations for October 2, 2015

Temp ( °F °C ) Dew Point ( °F °C ) Humidity (%) Winds ( mph kmh ) Pressure ( in mb ) Visibility ( mi km ) Precip ( " mm )
12:43 am 00:43 Cloudy with Light Rain 65 18.3 65 18.3 100 100 NE 3 6 29.80 1009 2 3 0.03 0.76
12:53 am 00:53 Cloudy with Mist and Fog 65 18.3 65 18.3 100 100 NE 6 9 29.79 1009 3 4 0.03 0.76
1:10 am 01:10 Cloudy with Mist and Fog 64 18 64 18 100 100 NNE 5 7 29.77 1008 3 4 0.00 0.00
1:24 am 01:24 Cloudy with Mist and Fog 64 18 64 18 100 100 VRB 5 7 29.77 1008 3 5 0.00 0.00
1:53 am 01:53 Cloudy with Light Rain 65 18.3 65 18.3 100 100 NE 3 6 29.78 1008 3 4 0.01 0.25
2:00 am 02:00 Cloudy with Mist and Fog 64 18 64 18 100 100 VRB 5 7 29.77 1008 6 10 0.00 0.00
2:38 am 02:38 Cloudy 64 18 64 18 100 100 VRB 5 7 29.77 1008 9 14 0.00 0.00
2:53 am 02:53 Cloudy with Light Rain 64 17.8 63 17.2 96 96 undefined N/A 29.78 1008 4 6 0.01 0.25
2:56 am 02:56 Cloudy with Light Rain 64 17.8 63 17.2 96 96 VRB 5 7 29.77 1008 3 4 0.01 0.25
3:53 am 03:53 Cloudy 63 17.2 61 16.1 93 93 VRB 7 11 29.78 1008 10 16 0.01 0.25
4:53 am 04:53 Cloudy with Light Rain 61 16.1 60 15.6 97 97 VRB 6 9 29.78 1008 10 16 0.03 0.76
5:21 am 05:21 Cloudy with Light Rain 60 15.6 60 15.6 100 100 VRB 3 6 29.77 1008 10 16 0.01 0.25
5:53 am 05:53 Cloudy with Light Rain 60 15.6 59 15 96 96 VRB 5 7 29.78 1009 10 16 0.03 0.76
6:20 am 06:20 Cloudy with Light Rain 60 15.6 59 15 96 96 VRB 3 6 29.77 1008 10 16 0.01 0.25
6:53 am 06:53 Cloudy 60 15.6 59 15 96 96 VRB 5 7 29.80 1009 10 16 0.01 0.25
7:53 am 07:53 Cloudy 60 15.6 58 14.4 93 93 VRB 3 6 29.79 1009 10 16 0.00 0.00
8:53 am 08:53 Cloudy 60 15.6 57 13.9 90 90 VRB 6 9 29.81 1009 10 16 0.00 0.00
9:00 am 09:00 Cloudy 61 16 57 14 88 88 E 8 13 29.80 1009 10 16 0.00 0.00
9:31 am 09:31 Cloudy with Mist and Fog 60 15.6 58 14.4 93 93 VRB 6 9 29.80 1009 5 8 0.00 0.00
9:53 am 09:53 Cloudy with Mist and Fog 60 15.6 59 15 96 96 NE 10 17 29.80 1009 4 6 0.00 0.03
10:01 am 10:01 Cloudy with Light Rain 60 15.6 59 15 96 96 VRB 7 11 29.80 1009 2 2 0.00 0.03
10:53 am 10:53 Cloudy with Mist and Fog 60 15.6 59 15 96 96 VRB 5 7 29.81 1009 5 8 0.00 0.03
11:53 am 11:53 Cloudy 61 16.1 58 14.4 90 90 ENE 9 15 29.81 1010 7 11 0.00 0.03
12:49 pm 12:49 Cloudy 63 17 57 14 83 83 ENE 8 13 29.80 1009 8 13 0.01 0.25
12:53 pm 12:53 Cloudy 62 16.7 59 15 90 90 VRB 6 9 29.81 1009 7 11 0.01 0.25
1:41 pm 13:41 Cloudy 61 16.1 58 14.4 90 90 ENE 8 13 29.80 1009 7 11 0.00 0.03
1:53 pm 13:53 Cloudy 63 17.2 58 14.4 84 84 NE 7 11 29.79 1009 10 16 0.00 0.03
2:53 pm 14:53 Cloudy 62 16.7 58 14.4 86 86 ENE 8 13 29.78 1008 10 16 0.00 0.00
3:53 pm 15:53 Cloudy 63 17.2 58 14.4 84 84 NNE 9 15 29.76 1008 10 16 0.00 0.00
4:12 pm 16:12 Cloudy 63 17 57 14 83 83 NE 8 13 29.74 1007 10 16 0.00 0.00
4:34 pm 16:34 Cloudy 63 17 59 15 88 88 NNE 13 20 29.74 1007 10 16 0.00 0.00
4:53 pm 16:53 Cloudy with Mist and Fog 62 16.7 59 15 90 90 NNE 9 15 29.76 1008 6 10 0.00 0.00
5:53 pm 17:53 Cloudy with Mist and Fog 61 16.1 60 15.6 97 97 NE 8 13 29.76 1008 4 6 0.00 0.03
6:53 pm 18:53 Cloudy with Mist and Fog 61 16.1 60 15.6 97 97 VRB 5 7 29.76 1008 5 8 0.00 0.00
7:53 pm 19:53 Cloudy 61 16.1 59 15 93 93 NE 7 11 29.76 1008 10 16 0.00 0.00
8:00 pm 20:00 Cloudy 61 16 59 15 94 94 NE 8 13 29.74 1007 10 16 0.00 0.00
8:53 pm 20:53 Cloudy with Light Rain 60 15.6 60 15.6 100 100 NNE 3 6 29.77 1008 3 4 0.01 0.25
8:56 pm 20:56 Cloudy with Light Rain 61 16 61 16 100 100 VRB 5 7 29.74 1007 3 5 0.00 0.00
9:53 pm 21:53 Cloudy 61 16.1 59 15 93 93 NNE 6 9 29.76 1008 10 16 0.01 0.25
10:00 pm 22:00 Cloudy 61 16 59 15 94 94 NE 7 11 29.74 1007 10 16 0.00 0.00
10:13 pm 22:13 Cloudy 61 16.1 59 15 93 93 VRB 5 7 29.74 1007 10 16 0.00 0.00

Powered by AerisWeather